Total_Precipitation_Accumulation
2.53 2.18 3.42 3.52 3.10 2.84 2.91 3.11 3.33 3.29 3.23 3.08 2.96 2.77 2.56 2.34 2.26 2.32 2.19 2.20 2.19 2.23 2.31 2.38 2.44 2.60 2.57 2.38 2.33 2.41 2.44 2.41 2.49 2.45 2.17 2.21 2.40 2.31 2.23 2.50 3.34 3.87 3.45
1.71 1.81 3.11 3.34 2.97 2.75 2.77 3.08 3.30 3.29 3.33 3.31 3.00 2.66 2.42 2.18 2.05 2.10 2.08 2.01 1.93 1.94 1.99 2.18 2.50 2.91 2.85 2.59 2.47 2.50 2.40 2.46 2.52 2.61 2.59 2.50 2.54 2.53 2.40 2.47 3.01 3.35 3.11
1.40 1.55 2.32 3.19 3.04 2.86 2.98 3.11 3.10 3.02 2.97 2.91 2.73 2.51 2.38 2.17 2.08 2.11 2.08 2.01 1.85 1.79 1.72 1.96 2.37 2.67 2.80 2.62 2.45 2.36 2.23 2.29 2.34 2.63 3.21 3.70 2.99 2.72 2.65 2.52 2.73 2.70 2.64
1.30 1.40 1.75 2.95 3.05 2.91 3.02 3.08 2.93 2.78 2.62 2.46 2.43 2.38 2.26 2.18 2.05 2.03 2.04 2.03 1.87 1.79 1.76 1.91 2.25 2.39 2.45 2.37 2.27 2.11 1.93 2.03 2.25 2.47 3.01 3.63 3.43 3.13 3.03 2.86 2.85 2.56 2.53
1.21 1.35 1.86 2.80 2.90 2.85 2.82 2.83 2.87 2.68 2.49 2.25 2.11 2.15 2.09 2.07 1.94 1.97 2.01 1.90 1.79 1.79 1.71 1.77 2.05 2.26 2.44 2.31 2.15 2.01 1.89 1.99 2.24 1.97 2.33 3.05 3.72 3.63 3.06 2.96 2.98 2.69 2.58
1.24 1.32 1.79 2.50 2.67 2.70 2.63 2.60 2.53 2.38 2.22 2.13 1.99 2.05 2.08 2.03 1.94 1.91 1.81 1.79 1.79 1.82 1.77 1.71 1.84 2.14 2.47 2.40 2.31 2.29 2.22 2.11 1.89 1.86 2.30 2.94 3.62 3.63 3.14 2.99 2.82 2.80 2.70
1.32 1.27 1.61 2.27 2.41 2.51 2.45 2.29 2.24 2.23 2.08 2.00 1.94 1.85 1.87 1.91 1.94 1.89 1.87 1.88 1.79 1.82 1.87 1.82 1.90 1.98 2.20 2.31 2.45 2.45 2.33 1.97 1.69 2.00 2.18 2.69 3.16 3.45 3.06 3.09 3.01 3.04 2.89
1.35 1.26 1.39 1.97 2.23 2.28 2.24 2.21 2.18 2.12 2.01 1.88 1.76 1.70 1.73 1.78 1.76 1.67 1.69 1.74 1.70 1.68 1.76 1.74 1.81 1.79 1.81 2.03 2.34 2.57 2.44 1.82 1.49 1.72 1.89 2.48 3.31 3.45 2.93 2.91 3.04 3.20 3.21
1.58 1.43 1.33 1.47 1.72 1.93 2.16 2.21 2.28 2.26 2.19 2.02 1.81 1.69 1.73 1.70 1.56 1.48 1.60 1.70 1.75 1.77 1.89 1.89 1.91 1.84 1.81 2.00 2.28 2.54 2.38 1.79 1.69 1.82 1.70 2.56 3.60 3.27 2.72 2.56 2.72 2.88 3.06
1.54 1.49 1.38 1.42 1.50 1.60 1.84 2.16 2.44 2.53 2.59 2.30 1.92 1.79 1.68 1.55 1.48 1.55 1.62 1.75 1.91 2.03 2.19 2.23 2.13 1.97 1.95 2.01 2.17 2.22 1.99 1.64 1.73 1.79 2.16 2.72 3.59 3.36 2.74 2.42 2.47 2.41 2.55
1.14 1.20 1.25 1.32 1.43 1.52 1.62 1.76 2.22 2.45 2.59 2.21 1.75 1.76 1.63 1.45 1.37 1.52 1.61 2.06 2.18 2.28 2.51 2.63 2.43 2.16 1.96 1.90 1.98 1.95 1.62 1.41 1.59 1.92 2.41 3.11 3.56 3.41 2.89 2.57 2.33 2.30 2.26
0.97 0.91 0.92 0.93 1.04 1.24 1.35 1.66 2.03 2.09 2.19 1.85 1.61 1.61 1.57 1.65 1.59 1.33 1.50 2.04 2.29 2.38 2.24 2.26 2.35 2.06 1.69 1.44 1.41 1.43 1.40 1.37 1.61 1.93 2.52 3.52 3.81 3.62 3.09 2.64 2.34 2.34 2.30
0.74 0.73 0.72 0.77 0.81 1.00 1.35 1.64 1.92 2.06 2.14 2.10 2.03 1.77 1.75 1.66 1.47 1.33 1.37 1.49 1.62 1.72 1.62 1.67 1.75 1.58 1.50 1.36 1.32 1.29 1.25 1.44 1.91 2.15 2.82 3.75 4.10 3.89 3.41 2.98 2.60 2.55 2.57
0.76 0.78 0.71 0.64 0.71 0.88 1.07 1.30 1.66 1.91 1.97 1.94 1.84 1.52 1.55 1.61 1.46 1.42 1.54 1.66 1.64 1.68 1.82 1.79 1.78 1.68 1.51 1.31 1.29 1.36 1.36 1.39 1.72 2.06 2.70 3.33 4.03 4.32 3.88 3.38 3.04 2.96 2.84
0.85 0.95 0.91 0.76 0.74 0.84 0.98 1.03 1.23 1.48 1.56 1.83 1.84 1.43 1.30 1.36 1.46 1.48 1.40 1.61 1.72 1.77 1.84 1.87 1.80 1.69 1.65 1.47 1.47 1.50 1.54 1.42 1.55 1.72 2.22 2.70 3.31 4.15 4.33 3.94 3.63 3.52 3.24
0.70 0.84 0.91 0.92 0.93 0.94 0.95 0.95 0.98 1.03 1.17 1.31 1.35 1.17 1.12 1.15 1.30 1.51 1.41 1.41 1.55 1.75 1.89 1.89 1.84 1.89 1.85 1.64 1.62 1.67 1.64 1.58 1.61 1.69 1.93 2.02 2.25 2.94 3.70 4.10 4.17 3.96 3.56
0.59 0.69 0.81 0.88 0.94 1.01 1.10 1.11 1.01 0.98 1.12 1.15 1.10 1.09 1.11 1.09 1.22 1.47 1.40 1.31 1.33 1.50 1.69 1.94 2.02 2.03 1.80 1.72 1.76 1.75 1.63 1.61 1.61 1.81 1.88 1.96 1.90 2.08 2.65 3.18 3.71 3.88 3.92
0.61 0.64 0.72 0.68 0.79 0.94 1.13 1.22 1.20 1.16 1.22 1.18 1.04 0.99 0.97 0.98 1.02 1.27 1.37 1.28 1.27 1.47 1.74 2.02 2.22 2.27 2.06 2.02 2.07 1.97 1.75 1.69 1.63 1.77 1.84 1.95 2.08 1.87 1.92 2.13 2.56 3.15 3.66
0.67 0.65 0.66 0.70 0.72 0.77 0.94 1.08 1.11 1.11 1.17 1.14 1.07 1.04 0.96 0.92 0.95 1.21 1.44 1.48 1.46 1.65 1.80 1.81 2.08 2.24 2.34 2.25 2.07 1.94 1.88 1.88 1.84 1.78 1.91 1.92 1.99 1.95 1.81 1.58 1.67 2.15 2.80
0.76 0.76 0.78 0.75 0.70 0.71 0.76 0.89 1.01 0.99 1.02 1.10 1.06 1.08 1.10 1.14 1.16 1.39 1.64 1.67 1.75 1.85 1.97 2.19 2.48 2.49 2.41 2.44 2.15 1.90 1.79 1.83 1.92 2.00 1.98 1.98 2.05 1.89 1.73 1.57 1.52 1.51 2.05
0.69 0.68 0.73 0.78 0.73 0.67 0.63 0.72 0.83 0.89 1.01 1.12 1.22 1.31 1.30 1.28 1.34 1.57 1.77 2.00 2.14 2.05 2.08 2.36 2.67 2.77 2.55 2.40 2.50 2.35 2.16 1.96 1.96 1.93 1.92 2.00 2.04 2.00 1.89 1.83 1.75 1.64 1.78
0.59 0.59 0.64 0.68 0.65 0.59 0.54 0.61 0.74 0.89 1.01 1.18 1.39 1.64 1.56 1.42 1.44 1.46 1.74 1.93 2.03 2.17 2.21 2.32 2.65 2.99 2.74 2.46 2.72 3.17 2.92 2.69 2.15 1.80 1.93 1.98 2.09 2.10 2.04 1.90 1.91 1.82 1.83
0.51 0.58 0.61 0.64 0.63 0.63 0.68 0.85 1.16 1.47 1.64 1.71 1.75 2.00 2.04 1.87 1.79 1.75 1.79 1.93 2.02 2.23 2.40 2.43 2.51 2.89 2.93 2.65 2.61 3.26 3.29 3.13 2.85 2.28 1.92 1.96 2.15 2.25 2.28 2.19 2.04 1.98 1.88
0.49 0.59 0.66 0.65 0.72 0.73 0.87 1.18 1.62 1.98 2.16 2.13 2.20 2.28 2.39 2.29 2.11 2.11 2.12 2.22 2.17 2.17 2.29 2.27 2.27 2.54 2.89 2.93 2.71 2.54 2.51 2.68 3.09 2.84 2.24 2.05 2.09 2.13 2.29 2.16 2.17 2.21 2.12
0.56 0.63 0.75 0.84 0.98 1.16 1.27 1.42 1.74 1.92 1.99 2.13 2.29 2.54 2.74 2.80 2.75 2.71 2.61 2.44 2.25 2.20 2.28 2.33 2.35 2.47 2.60 2.77 2.73 2.54 2.45 2.42 2.35 2.65 2.64 2.36 2.13 2.04 2.16 2.21 2.24 2.25 2.24
0.73 0.82 0.89 1.08 1.21 1.25 1.38 1.48 1.59 1.68 1.81 2.04 2.22 2.46 2.64 2.69 2.75 2.70 2.50 2.21 2.05 2.01 2.11 2.28 2.32 2.41 2.42 2.50 2.45 2.29 2.27 2.31 2.34 2.53 2.51 2.46 2.41 2.06 1.91 2.00 2.07 2.12 2.02